TIME,DELAY(SENSOR),PRES,OXYGEN,RAWTEMP,T(OPTODE),TCPHASE,FLUOR,BETA(BETA700),BETA(BETA412),BETA(BETA440),CDOM,C(CSC),ED(ED412.40),ED(ED444.00),ED(ED489.70),ED(ED554.30),LU(LU411.80),LU(LU443.40),LU(LU489.60),LU(LU554.10),COMP,TILTX,TILTY,CHECK
1341372388,5806,874.9600219726562000,42.7058792114257800,659.9235839843750000,4.6304860115051270,54.5881614685058600,53,99,89,79,83,15396,2147755227,2147416585,2148006345,2147874486,2147642075,2147061010,2148263387,2147197174,1072,4,13,56892
1341375984,5808,955.3599853515625000,46.5167808532714840,669.8292846679688000,4.3038368225097660,54.1568603515625000,53,99,89,79,82,15397,2147757174,2147421394,2148006765,2147875593,2147643803,2147061147,2148260845,2147201618,2219,4,13,55250
1341379584,5808,971.9699707031250000,47.5531692504882800,671.6398925781250000,4.2440109252929690,54.0319404602050800,52,100,91,81,82,15399,2147756516,2147422363,2148006473,2147876553,2147643584,2147066038,2148259437,2147200338,3454,5,13,25404
1341383184,5808,974.6699829101562000,47.0913314819335940,672.0756835937500000,4.2296028137207030,54.0995292663574200,53,101,89,80,81,15398,2147759570,2147419227,2148005220,2147875657,2147643117,2147058057,2148262802,2147199067,598,5,13,50632
1341386784,5810,978.5399780273438000,47.6718101501464840,672.9326171875000000,4.2012748718261720,54.0323486328125000,52,101,87,79,82,15399,2147757586,2147422299,2148006445,2147876425,2147641462,2147060114,2148258432,2147201389,91,5,13,41993
1341390384,5810,983.0399780273438000,48.4091911315918000,674.2357788085938000,4.1581687927246090,53.9437484741210940,53,98,86,78,83,15396,2147761152,2147422509,2148007113,2147875145,2147642578,2147060745,2148258980,2147200301,401,5,13,27700
1341393984,5808,986.1300048828125000,48.0043907165527340,674.2888793945312000,4.1564159393310550,53.9987602233886700,52,99,91,79,80,15395,2147757284,2147424054,2148010404,2147875574,2147640923,2147059949,2148261814,2147201216,266,4,13,43474
1341397584,5805,989.4000244140625000,47.9905509948730500,673.4921264648438000,4.1827721595764160,53.9953498840332000,53,99,88,80,82,15398,2147758080,2147421001,2148009033,2147879085,2147644324,2147059593,2148258797,2147203172,90,5,13,58050
1341401184,5809,1000.9899902343750000,46.6715011596679700,672.3115234375000000,4.2218089103698730,54.1657791137695300,53,106,91,80,80,15396,2147756598,2147423881,2148008009,2147877723,2147643611,2147061083,2148261403,2147196297,3557,5,13,221
1341404784,5810,999.0999755859375000,46.2948913574218750,671.9409790039062000,4.2340559959411620,54.2132987976074200,52,98,87,78,82,15394,2147760164,2147421641,2148005604,2147876333,2147645430,2147063497,2148259849,2147202166,383,5,13,43383
1341408384,5810,1004.1699829101562000,46.2303581237793000,671.7664184570312000,4.2398300170898440,54.2187500000000000,52,100,89,78,82,15381,2147756690,2147422409,2148010496,2147875008,2147646592,2147062628,2148260068,2147196187,3173,5,13,51631
1341411984,5810,1004.6599731445312000,46.1749496459960940,671.6580200195312000,4.2434120178222660,54.2276191711425800,52,101,92,79,82,15395,2147761636,2147422464,2148007661,2147878884,2147642843,2147061156,2148262756,2147198555,69,5,13,63674
1341415584,5810,1007.2299804687500000,46.2936706542968750,671.9688110351562000,4.2331409454345700,54.2169685363769500,52,97,89,79,82,15354,2147757403,2147421037,2148007972,2147874614,2147643757,2147058752,2148262134,2147202377,152,4,13,49144
1341419184,5810,994.1900024414062000,46.3460083007812500,672.7805175781250000,4.2063031196594240,54.2177581787109400,52,100,85,80,83,15352,2147759040,2147423926,2148005540,2147876260,2147644928,2147060845,2148258093,2147201590,269,5,13,54026
1341422784,5806,989.4299926757812000,47.3359107971191400,674.3978271484375000,4.1528110504150390,54.0991401672363300,53,99,86,80,82,15354,2147760694,2147422052,2148007067,2147875017,2147644269,2147063222,2148261860,2147199442,146,5,13,17795
1341426384,5811,994.2299804687500000,48.1455802917480500,675.5961914062500000,4.1131567955017090,53.9953804016113300,52,99,86,78,83,15349,2147760694,2147423012,2148005741,2147874148,2147643721,2147063524,2148264347,2147202322,2873,5,13,32213
1341429984,5811,992.6699829101562000,48.0432815551757800,675.8518066406250000,4.1046938896179200,54.0149192810058600,54,97,91,80,82,15347,2147758966,2147423771,2148004598,2147874989,2147646546,2147065325,2148256155,2147202523,73,5,13,2455
1341433584,5809,983.5599975585938000,48.3527107238769500,676.4810180664062000,4.0838680267333980,53.9838600158691400,53,100,88,81,82,15350,2147761252,2147424228,2148007213,2147875620,2147646793,2147061193,2148264109,2147201417,1115,5,13,2703
1341437184,5808,987.2399902343750000,48.6262817382812500,677.0294189453125000,4.0657100677490230,53.9469795227050800,52,99,88,79,82,15340,2147758125,2147423972,2148006436,2147877869,2147643657,2147060461,2148263250,2147201709,21,4,13,47309
1341440784,5810,997.0100097656250000,48.7388610839843750,674.8673706054688000,4.1372761726379395,53.9096488952636700,53,98,87,78,81,15335,2147758016,2147421723,2148009097,2147875264,2147646546,2147059904,2148261220,2147202130,73,5,13,34331
1341444384,5807,998.1400146484375000,47.6806907653808600,674.6735839843750000,4.1436882019042970,54.0496482849121100,52,98,87,78,82,15338,2147757677,2147421577,2148006820,2147877229,2147645741,2147060342,2148260891,2147198125,69,5,13,32387
1341447984,5811,1015.6900024414062000,46.5616302490234400,672.0493164062500000,4.2304759025573730,54.1800193786621100,53,99,87,79,82,15333,2147760859,2147423771,2148008996,2147876251,2147643273,2147061357,2148265627,2147202212,582,4,13,4339
1341451584,5810,1008.4199829101562000,45.7915191650390600,672.0944213867188000,4.2289891242980960,54.2912406921386700,53,99,88,79,81,15330,2147760173,2147423232,2148008164,2147874011,2147644598,2147058422,2148263323,2147204781,225,5,13,30874
1341455184,5806,1008.6799926757812000,45.6987991333007800,671.7111206054688000,4.2416567802429200,54.2946205139160160,53,99,89,83,82,15336,2147758884,2147420736,2148007296,2147872804,2147645430,2147064109,2148260397,2147198957,3520,4,13,40729
1341458784,5809,1005.5700073242188000,45.3470191955566400,671.2183837890625000,4.2579398155212400,54.3386116027832000,53,99,87,78,82,15337,2147762285,2147420242,2148006555,2147874011,2147643940,2147059794,2148260370,2147201572,268,5,13,35001
1341462384,5805,1004.7800292968750000,45.8887100219726560,672.4541015625000000,4.2170939445495605,54.2770996093750000,53,98,86,79,82,15337,2147758820,2147423369,2148007250,2147873965,2147642121,2147059053,2148262116,2147197330,179,5,13,64516
1341465984,5809,1003.7100219726562000,46.8682403564453100,672.7813110351562000,4.2062759399414060,54.1452217102050800,52,98,89,78,82,15335,2147758171,2147423798,2148004397,2147877284,2147641545,2147059611,2148263853,2147202084,112,4,13,53864
1341469584,5810,998.3900146484375000,47.0705604553222660,674.3637084960938000,4.1539402008056640,54.1336097717285160,52,99,88,78,82,15339,2147757769,2147420772,2148006080,2147873526,2147646848,2147061824,2148258368,2147205522,3478,4,13,23485
1341473184,5805,992.5800170898438000,47.6381492614746100,675.5026245117188000,4.1162548065185550,54.0706901550293000,53,99,92,80,82,15339,2147759058,2147420242,2148007552,2147874806,2147643666,2147058806,2148259017,2147201554,461,5,13,12893
1341476784,5808,995.7000122070312000,47.9111099243164060,675.5806884765625000,4.1136679649353030,54.0314292907714840,53,102,85,79,83,15329,2147757769,2147424896,2148008201,2147875730,2147643785,2147063990,2148263350,2147197211,347,4,13,33356
1341480384,5806,996.8499755859375000,48.1775817871093750,675.4191894531250000,4.1190128326416020,53.9921989440918000,52,99,90,79,82,15331,2147758098,2147421366,2148007853,2147875968,2147644352,2147065353,2148261138,2147201563,486,4,13,22792
1341483984,5808,995.6400146484375000,48.4079895019531250,674.9827880859375000,4.1334528923034670,53.9531898498535160,54,101,86,79,82,15328,2147757988,2147422400,2148010020,2147877238,2147644516,2147069193,2148262336,2147200493,3153,5,13,47784
1341487584,5808,1001.3499755859375000,47.9864692687988300,674.0305175781250000,4.1649608612060550,53.9977912902832000,52,98,92,78,83,15351,2147761709,2147421494,2148008905,2147876406,2147641600,2147060836,2148265517,2147206116,900,5,13,22291
1341491184,5809,1006.3699951171875000,47.5414390563964840,674.0534057617188000,4.1642060279846190,54.0596313476562500,52,100,88,79,82,15363,2147761609,2147422162,2148007378,2147870336,2147640923,2147059364,2148255835,2147200722,3570,4,13,52339
1341494784,5810,1010.6400146484375000,47.3250503540039060,673.5189208984375000,4.1818828582763670,54.0872306823730500,52,99,88,79,82,15361,2147761225,2147422226,2148005476,2147874825,2147644653,2147058587,2148259172,2147203547,34,5,13,35563
1341498384,5810,1015.1699829101562000,46.1198806762695300,671.9785766601562000,4.2328147888183590,54.2420692443847660,52,98,83,79,81,15361,2147761042,2147418651,2148009609,2147879369,2147643136,2147060873,2148260507,2147200237,3238,4,13,36176
1341501984,5808,1016.0399780273438000,45.7910804748535160,671.9730224609375000,4.2329998016357420,54.2860794067382800,53,97,86,79,84,15359,2147757357,2147421595,2148006080,2147874697,2147643620,2147059346,2148259721,2147201965,3433,4,13,27743
1341505584,5810,1009.7000122070312000,45.8797988891601560,672.7122192382812000,4.2085628509521480,54.2818717956543000,53,98,91,81,83,15361,2147759305,2147421604,2148007094,2147878665,2147643254,2147056484,2148260022,2147199881,912,4,13,45485
1341509184,5809,1004.2600097656250000,46.3999595642089840,673.5930786132812000,4.1794300079345700,54.2214012145996100,52,98,89,79,82,15361,2147754944,2147424685,2148007515,2147876452,2147644004,2147063835,2148259126,2147196955,119,5,13,5201
1341512784,5810,1004.1199951171875000,47.2574691772460940,674.5822143554688000,4.1467127799987790,54.1087913513183600,52,99,87,79,82,15363,2147761353,2147424356,2148010770,2147875209,2147643364,2147062921,2148261046,2147196955,575,5,13,40630
1341516384,5807,1004.2000122070312000,48.0420188903808600,674.7269897460938000,4.1419200897216800,53.9989013671875000,52,100,87,80,82,15360,2147759140,2147421129,2148009453,2147877174,2147642029,2147064640,2148262244,2147200283,440,5,13,31327
1341517855,5807,996.1799926757812000,47.7280197143554700,675.4904785156250000,4.1166548728942870,54.0525703430175800,53,99,90,79,82,15390,2147762669,2147420672,2148003510,2147874843,2147642916,2147059501,2148259968,2147201197,213,5,13,45349
